Location: Juzet
(42.9779°N, 0.7597°E)
Time: 08:23:46
(UTC+00:00)

SeaSat 1 - Pass Details

Date: 14 July 2020
Orbit: 744 x 747 km, 108.0° (Epoch: 04 August)

Event Time Altitude Azimuth Distance (km) Brightness Sun altitude
Rises 00:38:19 0° 43° (NE) 3,198 6.6 -24.9°
Reaches altitude 10° 00:41:19 10° 62° (ENE) 2,269 5.4 -24.8°
Maximum altitude 00:44:37 18° 105° (ESE) 1,781 4.3 -24.7°
Enters shadow 00:45:01 18° 111° (ESE) 1,788 4.3 -24.7°
